Sisseton, SD

5:08 AM CDT on August 29, 2016 (GMT -0500)
Sisseton

Weather History for K8D3 - November, 2013

Change the Weather History Date:

Monday, November 4, 2013

  Actual Average Record
Temperature  
Mean Temperature 37 °F 37 °F  
Max Temperature 46 °F 47 °F 74 °F (1975)
Min Temperature 28 °F 28 °F -2 °F (1951)
Degree Days  
Heating Degree Days 28 28  
Month to date heating degree days 97 108  
Since 1 July heating degree days 875 935  
Cooling Degree Days 0 0  
Month to date cooling degree days 0 0  
Year to date cooling degree days 625 527  
Moisture  
Dew Point 29 °F    
Average Humidity 65    
Maximum Humidity 85    
Minimum Humidity 45    
Precipitation  
Precipitation 0.00 in 0.03 in 0.46 in (1988)
Month to date precipitation 0.01 0.12  
Year to date precipitation 27.37 21.48  
Snow  
Snow 0.00 in - - ()
Month to date snowfall 0.0  
Since 1 July snowfall 1.0  
Snow Depth 0.00 in    
Sea Level Pressure  
Sea Level Pressure 29.90 in    
Wind  
Wind Speed 12 mph (WNW)    
Max Wind Speed 23 mph    
Max Gust Speed 28 mph    
T = Trace of Precipitation, MM = Missing Value Source: NWS Daily Summary

Daily Weather History Graph

Daily Weather History Graph

Search for Another Location

Airport or City:

Trip Planner

Search our weather history database for the weather conditions in past years. The results will help you decide how hot, cold, wet, or windy it might be!

Date:

Astronomy

Nov. 04, 2013 Rise Set
Actual Time 7:12 AM CST 5:10 PM CST
Civil Twilight 6:41 AM CST 5:41 PM CST
Nautical Twilight 6:05 AM CST 6:16 PM CST
Astronomical Twilight 5:31 AM CST 6:51 PM CST
Moon 8:27 AM CST (11/4) 6:12 PM CST (11/4)
Length of Visible Light 11h 00m
Length of Day
9h 57m
New Moon, 2% of the Moon is Illuminated
Nov 4
New Moon
Nov 9
First Quarter
Nov 17
Full
Nov 25
Last Quarter
Dec 2
New

Hourly Weather History & Observations

Time (CST) Temp. Windchill Dew Point Humidity Pressure Visibility Wind Dir Wind Speed Gust Speed Precip Events Conditions
12:56 AM 37.9 °F 30.9 °F 33.1 °F 83% 29.67 in - South 10.4 mph - N/A   Unknown
1:56 AM 37.0 °F 32.4 °F 33.1 °F 86% 29.68 in - South 5.8 mph - N/A   Unknown
2:56 AM 42.1 °F 36.6 °F 36.0 °F 79% 29.69 in - SW 9.2 mph - N/A   Unknown
3:56 AM 42.1 °F 35.7 °F 36.0 °F 79% 29.68 in - WNW 11.5 mph - N/A   Unknown
4:56 AM 42.1 °F 36.6 °F 35.1 °F 76% 29.70 in - NNW 9.2 mph - N/A   Unknown
5:56 AM 44.1 °F 37.4 °F 34.0 °F 68% 29.74 in - NNW 13.8 mph - N/A   Unknown
6:56 AM 43.0 °F 35.4 °F 32.0 °F 65% 29.77 in - NNW 16.1 mph 24.2 mph N/A   Unknown
7:56 AM 42.1 °F 35.2 °F 30.9 °F 65% 29.82 in - NNW 12.7 mph 20.7 mph N/A   Unknown
8:56 AM 41.0 °F 33.5 °F 28.9 °F 62% 29.85 in - NNW 13.8 mph - N/A   Unknown
9:56 AM 41.0 °F 32.5 °F 28.0 °F 60% 29.87 in - NNW 17.3 mph 24.2 mph N/A   Unknown
10:56 AM 39.9 °F 30.8 °F 28.0 °F 63% 29.90 in - NW 18.4 mph 23.0 mph N/A   Unknown
11:56 AM 42.1 °F 33.6 °F 26.1 °F 53% 29.91 in - NW 18.4 mph - N/A   Unknown
12:56 PM 44.1 °F 35.4 °F 28.0 °F 53% 29.91 in - WNW 21.9 mph 26.5 mph N/A   Unknown
1:56 PM 45.0 °F 37.4 °F 27.0 °F 49% 29.92 in - WNW 18.4 mph - N/A   Unknown
2:56 PM 46.0 °F 39.6 °F 26.1 °F 46% 29.93 in - NW 15.0 mph - N/A   Unknown
3:56 PM 45.0 °F 38.2 °F 27.0 °F 49% 29.96 in - WNW 15.0 mph - N/A   Unknown
4:56 PM 41.0 °F 35.2 °F 25.0 °F 53% 29.99 in - NW 9.2 mph - N/A   Unknown
5:56 PM 36.0 °F 32.1 °F 25.0 °F 64% 30.01 in - West 4.6 mph - N/A   Unknown
6:56 PM 36.0 °F 31.1 °F 25.0 °F 64% 30.04 in - West 5.8 mph - N/A   Unknown
7:56 PM 33.1 °F 26.9 °F 25.0 °F 72% 30.07 in - West 6.9 mph - N/A   Unknown
8:56 PM 35.1 °F 28.6 °F 25.0 °F 67% 30.09 in - West 8.1 mph - N/A   Unknown
9:56 PM 34.0 °F 27.2 °F 25.0 °F 70% 30.12 in - West 8.1 mph - N/A   Unknown
10:56 PM 34.0 °F 28.0 °F 24.1 °F 67% 30.14 in - WNW 6.9 mph - N/A   Unknown
11:56 PM 33.1 °F 28.7 °F 23.0 °F 66% 30.15 in - West 4.6 mph - N/A   Unknown